Temperature
24 24 23 24 26 27 29 31 32 31 31 31 31 31 29 28 27 25 25 24 22 21 21 21 21 20 20 20 19 19 19 19 19 19 19 19 19 18 18 18 18 18 18 18 18 18 18 18 18
24 24 25 26 26 28 30 32 31 31 32 31 31 30 29 28 27 26 24 23 22 21 21 21 21 20 20 20 19 19 19 19 19 19 19 18 18 18 18 18 18 18 18 18 18 18 18 18 18
25 25 27 28 28 29 30 32 32 32 32 31 31 29 28 28 26 25 24 23 21 21 21 21 20 20 20 19 19 19 19 19 19 19 18 18 18 18 18 18 18 18 18 18 18 18 18 18 18
24 27 29 30 30 32 32 33 33 32 32 31 31 29 27 27 26 25 24 23 21 20 21 21 21 20 20 19 19 19 19 19 19 19 18 18 18 18 18 18 18 18 18 18 18 18 18 18 18
26 28 29 29 31 33 34 33 33 32 32 31 30 28 27 26 25 24 24 23 22 20 21 21 21 20 20 19 19 19 19 19 19 19 18 18 18 18 18 18 18 18 18 18 18 18 18 18 18
28 30 29 29 31 33 34 33 33 33 32 31 30 28 26 26 25 24 24 23 22 21 21 21 21 20 20 20 19 19 19 19 19 18 18 18 18 18 18 18 18 18 18 18 18 18 18 18 18
29 30 30 31 32 33 33 33 33 32 32 31 30 28 26 26 25 25 24 24 23 21 21 21 21 20 20 20 19 19 19 19 19 19 18 18 18 18 18 18 18 18 18 18 18 18 18 18 18
30 31 31 32 32 32 34 33 33 32 31 31 30 28 26 25 25 25 24 24 23 21 21 21 20 20 20 20 20 19 19 19 19 19 19 19 18 18 18 18 18 18 18 18 18 18 18 18 18
30 30 31 32 32 33 34 33 33 32 31 31 30 29 26 25 25 25 24 24 23 22 21 20 20 20 19 19 20 19 19 19 19 19 19 18 18 18 18 18 18 18 18 18 18 18 18 18 18
31 31 32 33 33 33 34 33 33 32 31 30 29 27 26 25 25 25 25 24 23 22 21 21 20 20 19 19 19 19 19 19 19 18 18 18 18 18 18 18 18 18 18 18 18 18 18 18 18
32 31 33 34 34 33 33 33 33 32 30 29 27 26 25 25 25 25 24 24 23 23 22 21 20 20 20 19 19 19 18 19 18 18 18 18 18 18 18 18 18 18 18 18 18 18 18 18 18
32 33 33 33 33 33 33 33 33 32 30 29 27 26 26 25 25 25 24 24 23 23 22 22 21 20 20 20 19 19 19 19 19 19 18 18 18 18 18 18 18 18 18 18 18 18 18 18 18
32 33 33 33 33 33 32 32 32 32 31 29 28 27 26 26 25 25 24 23 23 22 22 22 21 20 20 20 20 20 19 19 19 19 19 19 19 18 18 18 18 18 18 18 18 18 18 18 18
33 33 33 33 33 33 33 33 32 32 31 30 28 27 26 26 25 25 24 23 22 22 22 22 21 20 20 20 20 20 20 19 19 19 19 19 19 18 18 18 18 18 18 18 18 18 18 18 18
32 32 33 33 33 33 33 32 32 31 31 30 29 27 27 26 25 25 24 23 22 22 21 21 20 20 20 20 20 20 20 20 19 19 19 19 19 18 18 18 18 18 18 18 18 18 18 18 18
32 31 31 33 33 33 32 30 31 30 31 30 29 28 27 26 26 25 24 23 22 21 21 21 20 20 20 19 20 20 20 20 20 19 19 19 19 18 18 18 18 18 18 18 18 18 18 18 18
31 31 31 33 33 33 32 30 30 30 31 30 30 29 27 26 25 25 24 23 22 21 21 20 20 20 19 19 20 20 20 20 20 19 19 19 19 18 18 18 18 18 18 18 18 18 18 18 18
31 31 32 32 33 33 32 31 31 31 31 30 30 28 27 26 25 24 23 22 22 21 20 20 20 20 19 19 19 19 19 19 19 19 19 19 19 18 19 18 18 18 18 18 18 18 18 18 18
31 31 31 32 33 32 32 31 31 31 31 30 29 28 27 26 25 24 23 22 21 21 20 20 20 19 19 19 19 19 19 19 19 19 19 19 19 18 19 19 19 18 18 18 18 18 18 18 18
31 31 31 32 33 32 31 31 31 32 31 30 29 28 27 26 25 23 22 22 21 20 20 20 20 19 19 19 19 19 19 19 19 19 19 19 19 19 19 19 18 18 18 18 18 18 18 18 18
30 30 31 31 32 32 31 30 30 31 31 30 30 29 27 26 25 23 22 22 21 20 20 20 20 19 19 19 19 19 19 19 19 19 19 19 19 18 18 18 18 18 18 18 18 18 18 18 18
30 31 31 31 31 30 31 29 29 29 29 30 30 29 28 27 25 24 23 22 21 20 20 20 20 19 19 19 19 19 19 19 19 19 18 18 18 18 18 18 18 18 18 18 18 18 18 18 18
31 32 31 31 30 30 30 29 29 28 28 29 30 29 28 27 25 24 23 22 21 20 20 20 20 19 19 19 19 19 18 18 18 18 18 18 18 18 18 18 18 18 18 18 18 18 18 18 18
31 31 31 31 30 28 29 29 27 28 28 29 29 28 27 26 25 24 23 22 21 21 20 20 19 19 19 19 19 18 18 18 18 18 18 18 18 18 18 18 18 18 18 18 18 18 18 18 18
31 29 28 28 28 28 30 29 28 29 29 29 29 28 27 26 25 24 23 22 21 21 20 20 19 19 19 19 19 18 18 18 18 18 18 18 18 18 18 18 18 18 18 18 18 18 18 18 18
30 30 28 27 27 29 30 29 29 30 30 29 29 28 27 26 25 24 23 22 22 21 20 20 20 19 19 19 19 18 18 18 18 18 18 18 18 18 18 18 18 18 18 18 18 18 18 17 18
30 30 31 29 29 28 28 28 29 30 30 30 29 28 27 26 25 24 23 23 22 21 20 20 19 19 19 19 18 18 18 18 18 18 18 18 18 18 18 18 18 18 18 18 18 18 17 17 17
31 31 30 29 27 26 27 27 28 28 29 30 29 28 27 26 25 24 23 23 22 21 20 20 19 19 18 18 18 18 18 18 18 18 18 18 18 18 18 18 18 18 18 18 17 17 17 17 17
30 30 29 29 29 27 26 26 28 28 29 29 29 28 27 26 25 24 23 22 21 21 20 19 19 18 18 18 18 18 18 18 18 18 18 18 17 17 17 17 17 17 17 17 17 17 17 17 17
31 30 30 28 27 28 27 25 27 27 28 28 28 27 27 26 25 24 23 22 21 20 20 19 19 18 18 18 18 18 18 18 18 18 17 17 17 17 17 17 17 17 17 17 17 17 17 17 17
Wind_Speed
10 12 10 6 5 3 5 11 13 14 14 12 11 13 17 15 11 12 16 24 25 22 20 19 18 18 18 17 17 16 15 15 15 14 14 14 14 14 14 14 14 15 15 15 15 16 16 16 15
10 13 9 4 4 0 7 11 14 13 11 10 12 17 18 17 17 16 19 23 25 22 20 19 19 18 18 17 16 16 15 15 14 14 13 13 13 13 14 14 15 15 15 15 15 16 15 15 15
12 15 7 5 4 2 8 11 12 12 9 10 13 16 14 13 16 16 20 24 23 20 20 20 20 19 18 17 16 16 15 15 14 13 13 13 13 13 14 14 14 15 15 15 15 15 15 14 13
8 8 6 5 2 6 9 10 10 10 10 9 11 13 12 12 15 19 22 23 23 21 21 20 20 19 18 17 16 15 15 14 14 13 13 13 13 13 14 14 14 14 15 15 15 14 14 13 11
10 6 6 4 2 8 10 9 8 7 9 11 15 16 13 14 20 21 21 22 21 21 20 20 19 19 18 17 16 15 14 14 13 13 13 13 13 13 13 13 14 14 14 14 14 14 13 11 9
7 6 6 4 1 6 8 8 7 8 9 11 15 16 11 16 18 19 20 20 21 22 20 20 19 18 18 17 16 15 14 14 13 13 13 13 13 13 13 13 13 14 14 13 13 13 12 10 7
10 9 9 6 2 5 8 6 6 6 8 8 13 14 12 16 17 17 17 18 21 22 20 18 18 17 17 16 16 15 14 14 13 13 13 13 13 13 13 13 13 13 13 12 12 11 10 9 6
10 9 10 7 3 6 7 6 7 6 7 6 9 10 14 18 18 17 16 17 19 20 19 17 18 17 16 15 15 15 14 14 13 12 12 13 13 13 13 13 12 12 12 11 11 10 9 8 5
12 9 8 4 1 5 6 5 7 8 8 6 8 12 19 22 20 17 15 15 16 18 17 17 17 16 16 16 16 15 14 13 13 12 12 13 12 13 12 13 13 11 11 10 10 9 9 8 6
9 8 8 2 2 2 4 5 5 6 9 10 13 17 21 21 19 18 17 16 17 17 17 16 16 14 15 15 15 14 13 13 12 12 13 11 9 11 12 15 13 11 10 10 9 9 8 8 7
10 11 9 5 1 2 1 2 4 4 6 9 13 19 20 20 18 17 16 15 15 14 14 16 15 12 12 10 12 10 10 12 11 12 11 10 10 11 13 11 10 10 10 9 9 9 8 8 6
12 12 8 6 2 0 3 3 2 4 7 12 14 19 18 19 18 17 16 14 14 13 13 15 15 10 8 10 8 8 8 9 8 11 12 9 5 6 8 8 10 10 8 7 8 6 7 6 6
12 12 10 8 6 4 4 3 1 3 9 14 18 19 18 17 17 15 14 14 14 11 11 13 13 10 7 6 5 7 7 8 9 10 10 9 5 4 5 4 6 8 8 6 4 4 4 3 4
10 11 11 10 9 7 7 6 5 5 8 11 15 16 17 16 16 14 13 13 14 12 11 11 12 11 7 5 2 2 6 8 9 9 9 8 7 5 5 4 3 4 7 6 5 4 3 2 2
12 12 12 12 12 10 8 8 7 5 8 10 14 15 15 15 14 14 15 13 14 12 10 11 11 11 9 8 6 5 5 8 7 8 10 8 7 8 6 4 3 4 6 6 4 3 4 3 3
12 13 14 14 13 10 8 9 4 6 7 9 11 13 14 13 13 14 15 13 13 13 11 11 12 13 10 7 6 4 5 6 7 9 10 9 7 9 5 4 4 6 6 5 3 2 3 3 3
14 15 15 12 12 10 9 8 6 7 8 8 9 11 12 12 13 12 14 14 13 12 12 10 9 12 11 9 6 4 3 4 6 9 10 10 9 9 6 3 4 6 4 3 4 4 3 3 3
13 13 12 11 10 11 9 9 9 8 8 8 9 9 10 11 11 12 12 13 12 12 11 11 10 10 10 8 6 4 4 4 4 5 8 11 9 9 6 4 5 4 3 3 2 4 2 2 3
15 12 10 8 6 7 9 8 7 8 8 7 8 9 10 11 10 10 11 13 14 13 12 12 11 11 9 8 7 6 6 5 5 4 9 11 10 9 5 4 5 3 3 4 4 3 4 3 3
16 15 11 8 6 6 8 9 8 8 7 8 10 9 10 11 11 12 12 14 14 13 13 12 12 11 11 8 6 6 6 5 5 4 7 10 9 9 8 5 4 4 3 3 3 3 2 3 4
16 15 12 10 8 7 9 11 9 8 7 8 9 10 11 11 12 14 14 13 13 14 14 13 12 11 11 9 7 6 5 4 5 6 6 7 9 9 7 8 6 5 6 5 4 4 4 3 3
14 13 13 12 9 8 10 10 8 8 8 10 10 10 10 10 11 12 13 13 12 12 12 11 12 10 10 9 9 9 8 7 6 6 6 7 8 8 8 8 7 5 5 5 6 6 4 3 3
13 11 12 11 11 12 11 10 6 7 10 11 10 10 10 10 11 11 12 12 11 11 11 11 11 10 9 9 9 8 8 7 5 6 7 8 7 7 8 7 6 6 4 5 5 4 4 3 4
12 11 10 11 11 14 14 11 7 8 10 9 10 9 9 11 11 11 11 11 9 9 10 11 10 10 10 10 9 9 8 7 7 7 7 6 6 6 7 7 6 6 5 6 5 5 6 4 4
14 11 9 10 10 13 13 11 6 8 7 8 9 10 9 10 11 11 11 11 10 10 10 10 11 10 10 10 9 9 8 7 7 7 7 7 6 6 8 8 6 6 6 6 6 6 5 6 5
17 17 12 9 9 10 10 7 5 10 10 9 10 12 11 9 10 11 10 10 10 10 9 9 10 9 9 9 9 7 7 6 6 7 6 7 5 6 7 7 7 7 7 8 6 6 7 6 6
18 18 18 14 10 7 4 4 6 10 12 11 11 11 11 10 10 11 10 9 9 9 8 8 9 8 8 8 8 7 7 6 6 5 6 5 5 6 7 7 7 6 6 6 6 5 6 5 6
18 17 12 12 9 8 8 9 8 12 12 12 11 11 11 11 10 10 9 8 8 8 8 8 8 8 7 7 7 7 6 6 5 5 5 5 5 5 6 7 6 6 6 6 6 5 6 6 6
18 18 13 10 9 9 6 2 0 6 8 10 11 10 10 10 10 10 9 8 7 7 7 7 6 6 6 6 6 5 5 5 5 4 5 4 3 3 4 5 5 5 5 6 6 7 6 6 6
17 17 15 11 10 9 6 3 3 4 5 7 10 10 10 10 10 9 9 8 7 6 6 6 6 6 6 5 5 4 4 4 4 4 4 4 3 3 3 4 4 5 5 5 6 7 6 6 6
Wind_Direction
240 246 241 260 261 246 84 84 80 72 69 64 57 70 71 62 75 96 119 119 119 122 126 126 124 126 127 126 124 121 119 116 112 109 106 103 103 103 103 102 101 101 102 103 103 102 101 101 101
260 260 249 249 269 90 88 85 81 78 80 81 70 70 75 73 90 110 117 119 121 126 131 126 125 126 127 127 126 124 121 118 115 112 109 107 105 105 104 104 103 102 103 103 104 103 104 105 105
263 264 263 233 245 113 95 91 91 94 87 82 79 69 68 89 103 115 122 125 124 124 122 126 128 127 127 127 127 125 122 119 117 114 111 109 107 106 104 104 104 104 104 104 105 104 106 108 110
263 254 245 254 224 103 101 101 104 104 97 89 90 83 76 85 111 122 129 125 123 126 126 129 129 129 129 129 128 127 124 122 120 117 114 112 110 108 107 106 105 105 105 106 107 108 109 111 115
254 267 262 278 218 106 98 97 99 99 96 92 93 95 91 97 115 128 132 129 133 129 128 133 132 132 132 131 130 128 127 125 123 120 118 116 114 112 110 109 108 107 108 108 110 111 113 114 116
260 256 261 264 176 106 101 100 108 98 98 102 106 105 103 116 126 138 137 138 135 130 131 133 134 134 134 133 133 131 131 129 127 124 122 120 118 116 113 112 112 113 113 112 113 116 117 118 119
264 278 267 245 202 119 109 106 99 104 102 106 111 111 126 133 138 143 140 139 134 131 133 140 140 139 138 137 137 137 136 133 132 130 129 128 126 123 119 116 117 117 117 118 118 120 121 124 129
266 285 283 263 171 115 115 116 115 114 96 101 110 121 140 142 148 144 143 141 135 134 140 145 146 146 147 145 144 143 142 140 140 140 139 136 135 134 131 127 123 122 122 123 125 128 130 136 149
263 267 276 290 115 123 124 120 120 118 118 97 85 117 140 147 151 149 151 146 139 139 144 151 150 154 156 152 149 149 148 149 149 152 152 153 156 149 148 131 131 131 131 132 137 141 145 152 173
242 261 270 312 59 97 118 134 138 135 128 111 104 113 136 150 155 159 159 153 146 145 151 152 151 159 161 153 151 160 161 160 170 164 168 180 168 150 138 136 141 144 146 149 156 158 166 179 181
243 257 281 301 50 29 8 154 148 137 132 132 136 139 151 155 160 164 163 158 149 152 154 151 148 159 159 142 158 165 161 161 177 169 174 173 156 144 138 147 151 159 166 174 166 180 197 201 192
245 261 270 287 318 276 283 275 127 131 133 138 154 151 159 163 168 170 166 160 152 160 157 151 147 159 151 149 162 160 158 163 166 168 180 167 168 157 152 158 161 168 179 179 176 196 192 191 172
244 259 263 265 260 239 240 255 213 142 130 140 148 152 165 171 173 171 165 159 156 165 161 146 145 148 142 138 165 168 158 162 159 164 180 167 163 153 137 138 155 166 168 177 191 194 163 157 148
257 255 257 256 253 241 235 230 221 178 149 145 149 159 170 175 173 164 165 163 161 168 165 146 146 143 141 146 186 172 158 150 152 162 165 172 158 142 138 146 163 164 164 172 176 170 152 147 121
258 262 259 247 241 233 232 238 228 200 165 161 160 166 173 177 174 168 168 168 165 168 162 147 149 147 156 167 192 182 168 158 156 152 155 172 165 150 154 154 176 173 156 150 164 158 147 164 170
244 246 248 240 226 220 222 244 215 210 192 172 167 169 170 172 177 173 168 166 164 165 161 158 166 159 165 176 197 197 185 157 150 152 158 176 172 160 168 165 178 164 157 158 156 174 173 168 169
238 237 241 235 206 208 210 231 209 210 202 182 174 169 167 171 179 172 167 167 165 163 159 164 166 161 170 180 193 203 178 153 158 157 161 172 178 172 181 172 147 164 165 162 190 166 175 172 180
235 234 237 239 198 200 216 224 200 209 205 185 174 169 168 175 180 172 168 167 161 158 159 168 174 166 170 177 189 208 184 173 172 161 158 162 177 181 182 165 162 184 174 172 162 128 166 170 193
264 267 261 251 212 207 222 228 219 211 203 179 176 177 170 175 179 163 167 169 167 164 166 175 179 173 171 179 188 189 189 183 179 175 160 164 178 179 183 183 167 190 178 173 170 166 184 204 198
255 262 258 244 225 227 234 237 222 221 214 187 181 177 170 173 168 162 172 172 172 170 173 178 182 179 181 184 186 185 186 188 184 184 165 172 177 178 185 189 182 177 176 182 188 175 195 211 194
243 248 251 250 232 225 245 247 227 223 218 198 186 178 176 172 171 169 171 172 172 175 179 181 180 181 185 182 185 192 185 195 191 180 175 180 181 187 191 177 197 183 187 179 191 196 204 225 218
239 239 249 251 248 244 240 250 225 211 224 211 193 182 176 171 168 170 168 172 176 177 179 175 178 179 183 185 190 191 193 197 196 184 181 186 188 188 188 187 191 194 193 170 195 193 207 213 236
237 239 242 247 250 258 255 256 233 198 218 215 192 179 170 164 164 169 167 168 171 172 172 173 172 176 183 192 196 198 204 203 195 187 181 182 189 197 197 193 188 193 199 178 192 174 199 207 230
231 237 238 245 250 248 246 250 237 213 201 195 176 168 166 168 165 158 157 156 162 169 171 172 170 178 187 196 199 204 207 205 196 190 180 184 189 197 205 199 191 197 200 186 186 186 199 210 229
218 220 219 224 230 243 237 235 215 177 172 190 169 154 164 171 157 152 153 157 165 172 174 173 171 181 187 194 202 205 206 204 203 195 188 191 191 195 203 203 195 203 202 192 188 192 209 209 218
210 218 222 224 230 240 227 225 192 159 156 157 151 149 160 159 149 149 155 161 167 170 173 170 170 176 184 193 199 199 199 205 207 207 198 199 200 198 194 197 197 205 205 205 193 198 207 208 215
213 220 234 247 266 264 233 213 161 154 155 152 149 145 152 155 150 153 155 162 164 163 165 166 165 172 181 189 190 190 196 206 207 201 207 211 203 195 189 197 198 203 207 209 197 212 211 200 210
227 219 232 246 260 266 238 216 189 171 163 155 149 151 151 149 151 147 149 157 155 158 157 162 163 170 178 181 190 193 192 198 201 199 203 206 201 200 184 195 198 202 205 211 210 215 215 208 213
216 221 226 241 246 251 246 237 141 152 155 155 150 145 145 146 143 141 140 138 139 144 147 157 162 170 173 174 180 181 182 189 192 201 208 199 193 192 190 195 198 200 205 210 211 217 215 209 214
217 224 222 231 244 258 256 196 188 161 172 147 134 137 141 136 134 131 131 130 133 138 145 155 162 167 165 165 163 170 173 179 187 196 194 183 184 192 190 197 197 201 204 207 211 218 219 215 215
Height
1479 1479 1479 1482 1479 1478 1473 1463 1459 1462 1464 1466 1467 1468 1474 1478 1485 1498 1500 1501 1503 1506 1510 1513 1516 1519 1521 1523 1526 1528 1530 1531 1533 1534 1535 1537 1538 1539 1540 1542 1543 1544 1545 1546 1547 1548 1549 1550 1551
1479 1480 1483 1481 1481 1484 1474 1461 1463 1464 1466 1468 1469 1472 1477 1483 1488 1495 1500 1503 1505 1508 1511 1514 1518 1520 1523 1525 1528 1530 1532 1533 1535 1536 1538 1539 1540 1542 1543 1544 1545 1546 1547 1548 1549 1550 1551 1552 1553
1479 1481 1482 1475 1478 1478 1472 1461 1463 1464 1467 1469 1472 1477 1482 1488 1493 1497 1502 1505 1507 1510 1513 1516 1519 1522 1524 1527 1529 1531 1533 1535 1537 1538 1540 1541 1542 1544 1545 1546 1547 1548 1549 1550 1551 1552 1553 1555 1556
1482 1481 1477 1472 1472 1462 1459 1459 1462 1464 1467 1470 1473 1480 1488 1492 1495 1499 1503 1507 1509 1512 1514 1517 1520 1523 1526 1528 1531 1533 1535 1537 1538 1540 1542 1543 1544 1546 1547 1548 1549 1550 1551 1552 1553 1555 1556 1557 1558
1484 1480 1476 1474 1465 1456 1455 1459 1462 1465 1467 1470 1475 1484 1491 1495 1497 1501 1505 1508 1511 1513 1516 1519 1522 1525 1527 1530 1532 1534 1536 1538 1540 1542 1543 1545 1546 1547 1549 1550 1551 1552 1553 1554 1555 1556 1558 1559 1560
1482 1475 1480 1479 1465 1455 1456 1459 1462 1465 1468 1472 1477 1485 1494 1497 1500 1503 1506 1509 1512 1514 1517 1520 1523 1526 1528 1531 1533 1536 1538 1540 1541 1543 1545 1546 1548 1549 1551 1552 1553 1554 1555 1556 1558 1559 1560 1561 1562
1481 1474 1474 1469 1464 1459 1457 1460 1463 1467 1469 1472 1477 1485 1494 1498 1501 1504 1507 1511 1514 1516 1518 1521 1524 1527 1530 1532 1534 1537 1539 1541 1543 1545 1546 1548 1549 1551 1552 1554 1555 1556 1557 1558 1560 1561 1562 1563 1564
1478 1473 1469 1463 1462 1461 1458 1460 1464 1467 1471 1474 1477 1483 1492 1497 1501 1504 1508 1512 1515 1517 1520 1522 1525 1528 1531 1533 1535 1538 1540 1542 1544 1546 1548 1549 1551 1552 1554 1555 1556 1557 1559 1560 1561 1563 1564 1565 1566
1477 1475 1473 1463 1460 1460 1457 1460 1464 1468 1472 1475 1478 1482 1488 1495 1500 1504 1508 1512 1516 1518 1521 1524 1526 1529 1532 1534 1536 1538 1541 1543 1545 1547 1549 1550 1552 1554 1555 1557 1558 1559 1560 1562 1563 1564 1565 1567 1568
1473 1473 1467 1457 1455 1457 1458 1461 1463 1467 1472 1478 1482 1487 1490 1495 1499 1503 1507 1511 1515 1518 1522 1525 1527 1529 1533 1535 1537 1539 1541 1543 1546 1548 1550 1551 1554 1555 1557 1558 1559 1560 1562 1563 1564 1566 1567 1568 1570
1468 1468 1460 1457 1457 1459 1460 1461 1463 1467 1473 1478 1483 1487 1492 1495 1499 1503 1507 1510 1514 1518 1521 1524 1527 1530 1534 1536 1537 1540 1542 1544 1546 1549 1551 1553 1555 1556 1557 1559 1560 1561 1563 1564 1566 1567 1568 1569 1572
1467 1463 1461 1459 1459 1461 1463 1463 1464 1466 1472 1477 1481 1486 1491 1495 1498 1502 1506 1510 1514 1517 1521 1524 1526 1530 1533 1536 1538 1541 1543 1545 1547 1549 1551 1553 1555 1557 1558 1559 1560 1562 1563 1565 1566 1568 1569 1571 1572
1464 1462 1461 1460 1461 1462 1463 1465 1465 1468 1472 1476 1481 1485 1490 1494 1497 1501 1505 1509 1513 1516 1520 1523 1525 1529 1532 1535 1538 1541 1543 1545 1547 1549 1551 1554 1556 1558 1559 1560 1561 1563 1564 1566 1567 1568 1570 1571 1573
1461 1461 1460 1460 1460 1461 1462 1464 1466 1467 1471 1475 1480 1484 1488 1492 1496 1499 1504 1507 1511 1515 1518 1521 1524 1527 1531 1534 1537 1540 1543 1545 1547 1548 1551 1553 1556 1557 1558 1559 1561 1563 1565 1566 1568 1569 1570 1571 1573
1463 1462 1460 1458 1458 1459 1462 1465 1464 1467 1469 1473 1478 1483 1487 1491 1494 1497 1501 1505 1509 1513 1517 1520 1523 1526 1530 1533 1536 1539 1542 1544 1546 1548 1550 1552 1555 1556 1558 1559 1561 1563 1564 1566 1567 1569 1570 1571 1572
1461 1463 1466 1455 1454 1457 1464 1472 1464 1466 1468 1471 1476 1480 1485 1489 1493 1496 1499 1503 1507 1511 1515 1518 1522 1524 1528 1531 1535 1538 1541 1543 1545 1546 1548 1551 1554 1555 1557 1559 1561 1562 1564 1565 1566 1568 1570 1571 1572
1463 1467 1463 1453 1449 1452 1460 1468 1463 1465 1466 1469 1473 1478 1483 1487 1491 1494 1497 1501 1505 1509 1512 1516 1519 1522 1526 1529 1533 1536 1539 1541 1543 1545 1547 1549 1552 1554 1556 1558 1560 1561 1563 1564 1566 1567 1568 1570 1571
1464 1459 1457 1454 1446 1450 1458 1462 1460 1463 1464 1467 1471 1476 1481 1485 1489 1492 1495 1498 1502 1506 1510 1513 1517 1520 1523 1527 1531 1534 1537 1539 1541 1543 1545 1547 1550 1552 1554 1556 1558 1560 1562 1563 1564 1566 1567 1568 1569
1454 1456 1457 1452 1445 1451 1457 1460 1459 1460 1462 1465 1471 1475 1479 1483 1487 1490 1493 1496 1500 1503 1507 1510 1514 1517 1521 1524 1527 1531 1534 1536 1539 1541 1543 1545 1547 1550 1552 1554 1556 1558 1559 1561 1563 1564 1566 1567 1568
1456 1459 1457 1451 1446 1451 1457 1459 1456 1457 1460 1464 1468 1473 1476 1480 1484 1487 1490 1493 1496 1500 1503 1508 1511 1514 1517 1521 1525 1528 1531 1534 1537 1539 1541 1543 1545 1547 1550 1552 1554 1555 1557 1559 1561 1562 1564 1565 1567
1457 1459 1457 1455 1448 1450 1457 1463 1459 1456 1458 1462 1465 1469 1474 1478 1481 1485 1488 1491 1494 1498 1501 1504 1507 1511 1515 1518 1522 1526 1529 1531 1534 1536 1538 1540 1543 1545 1548 1549 1552 1553 1555 1556 1558 1560 1562 1563 1565
1460 1451 1451 1452 1458 1461 1459 1474 1463 1457 1460 1460 1463 1467 1471 1475 1478 1482 1486 1490 1493 1496 1499 1502 1505 1509 1512 1516 1518 1522 1524 1527 1530 1533 1535 1538 1540 1542 1545 1547 1549 1550 1552 1554 1555 1557 1559 1561 1562
1451 1446 1449 1452 1458 1463 1459 1468 1465 1458 1464 1460 1460 1464 1469 1473 1477 1480 1484 1488 1492 1495 1497 1500 1503 1507 1510 1513 1515 1519 1522 1525 1528 1530 1532 1534 1537 1539 1542 1544 1545 1547 1549 1551 1552 1554 1556 1558 1560
1446 1449 1451 1453 1459 1475 1463 1467 1472 1459 1457 1457 1458 1462 1468 1472 1476 1479 1483 1487 1490 1494 1496 1498 1501 1503 1507 1510 1512 1516 1519 1522 1524 1526 1528 1531 1533 1536 1538 1540 1542 1543 1546 1547 1549 1551 1553 1555 1556
1448 1459 1474 1478 1478 1472 1452 1459 1461 1448 1449 1453 1456 1461 1466 1470 1474 1478 1482 1486 1489 1492 1494 1496 1499 1501 1504 1507 1509 1512 1515 1518 1521 1523 1525 1527 1529 1531 1534 1536 1538 1540 1542 1544 1545 1547 1549 1551 1553
1448 1453 1472 1482 1478 1466 1452 1459 1451 1441 1447 1451 1455 1460 1466 1470 1473 1477 1481 1485 1488 1490 1493 1495 1497 1499 1502 1504 1506 1509 1512 1515 1517 1519 1521 1523 1526 1528 1530 1533 1535 1536 1538 1540 1541 1543 1545 1547 1549
1445 1448 1444 1454 1460 1469 1463 1455 1448 1443 1446 1449 1453 1458 1464 1469 1472 1476 1480 1484 1487 1489 1491 1493 1495 1497 1499 1501 1504 1506 1509 1511 1514 1515 1517 1519 1522 1525 1527 1529 1531 1533 1534 1536 1538 1540 1542 1543 1545
1435 1440 1447 1457 1474 1482 1471 1464 1458 1450 1448 1448 1453 1458 1463 1467 1472 1476 1480 1483 1486 1488 1490 1492 1494 1496 1498 1499 1502 1504 1506 1508 1511 1513 1514 1516 1519 1522 1523 1525 1527 1529 1531 1532 1534 1536 1538 1540 1541
1438 1440 1443 1449 1453 1471 1478 1472 1447 1447 1446 1448 1452 1458 1463 1467 1471 1475 1479 1483 1486 1488 1490 1492 1493 1494 1495 1497 1499 1501 1503 1506 1508 1509 1511 1513 1516 1518 1520 1522 1524 1525 1527 1528 1530 1533 1534 1536 1537
1429 1434 1440 1456 1459 1454 1463 1472 1448 1447 1449 1450 1453 1459 1464 1468 1472 1476 1479 1483 1486 1488 1490 1491 1492 1493 1494 1495 1498 1500 1501 1503 1505 1506 1508 1511 1513 1515 1516 1518 1520 1522 1523 1525 1527 1529 1530 1532 1534